Location: Brabourne
(51.1333°N, 1.0000°E)
Time: 06:17:59
(UTC+00:00)

NOSS 3-1 (A) - Pass Details

Date: 27 October 2021
Orbit: 721 x 1491 km, 63.4° (Epoch: 22 November)

Event Time Altitude Azimuth Distance (km) Brightness Sun altitude
Rises 21:06:54 0° 279° (W) 3,438 7.1 -41.0°
Reaches altitude 10° 21:09:33 10° 291° (WNW) 2,601 6.3 -41.4°
Enters shadow 21:13:18 27° 327° (NNW) 1,795 5.2 -41.8°
